Regional Weather Roundup
Issued by NWS Jackson, KY

Home | Current Version | Previous Version | Graphics & Text | Print | Product List | Glossary On
Versions: 1 2 3 4 5 6 7 8 9 10 11 12 13 14 15 16 17 18 19 20 21 22 23 24 25 26 27 28
000
ASUS43 KJKL 291010
RWRJKL

EAST KENTUCKY HOURLY WEATHER ROUNDUP
NATIONAL WEATHER SERVICE JACKSON KY
600 AM EDT MON AUG 29 2016

NOTE: "FAIR" INDICATES FEW OR NO CLOUDS BELOW 12,000 FEET WITH
NO SIGNIFICANT WEATHER AND/OR OBSTRUCTIONS TO VISIBILITY.

* THESE REPORTS ARE NOT UNDER NWS QUALITY CONTROL AND MAY NOT
  REPORT WEATHER SUCH AS PRECIPITATION AND FOG.

KYZ079-080-083-085-087-088-110-112-115-119-120-291100
...EASTERN KENTUCKY...

CITY           SKY/WX    TMP DP  RH WIND       PRES   REMARKS
JACKSON        CLEAR     70  66  87 CALM      30.19R
LONDON         PTCLDY    69  66  90 CALM      30.17R
SOMERSET*      CLEAR     68  68 100 CALM      30.17R
MONTICELLO*    CLOUDY   N/A N/A N/A N14       30.17R
WILLIAMSBURG*  CLOUDY    68  68 100 CALM      30.17R VSB<1/4
MIDDLESBORO*   FOG       68  68 100 CALM      30.18R VSB 1/4
HARLAN APT*    CLOUDY    70  68  94 CALM      30.19R
PIKE CO APT*     N/A     70  70 100 CALM      30.18S
BIG SANDY APT* SUNNY     69  69 100 N3        30.18R
MOREHEAD APT*  MOSUNNY   68  66  94 CALM      30.20S
$$

KYZ035-036-041-042-044-050-067-078-099-291100
...CENTRAL KENTUCKY...

CITY           SKY/WX    TMP DP  RH WIND       PRES   REMARKS
MT STERLING*   CLEAR     68  68 100 CALM      30.20S
FLEMING/MASON* CLOUDY    70  68  95 CALM      30.19F
DANVILLE*      PTCLDY    66  66 100 CALM      30.19S
LEXINGTON      CLEAR     70  67  90 N5        30.19R
FRANKFORT      CLOUDY    70  67  90 N3        30.18R
LOUISVILLE     PTCLDY    72  68  87 NE6       30.16S
LEBANON*         N/A     66  66 100 CALM      30.17F
GLASGOW*       CLEAR     69  69 100 NE3       30.13F
BOWLING GREEN  CLEAR     70  68  93 CALM      30.13S
$$

KYZ091>093-OHZ055-061-077-WVZ005-015-034-035-042-291100
...SOUTHERN OHIO/WEST VIRGINIA...

CITY           SKY/WX    TMP DP  RH WIND       PRES   REMARKS
COVINGTON      PTCLDY    68  68 100 N5        30.19S FOG
COLUMBUS       CLOUDY    71  68  90 N8        30.18S
DAYTON         PTCLDY    67  65  93 N3        30.21F
WILMINGTON     CLEAR     68  66  93 N6        30.20R
HUNTINGTON     CLEAR     71  68  90 CALM      30.17R
CHARLESTON     FOG       71  70  96 CALM      30.17R VSB 1
PINEVILLE*     CLOUDY    68  65  90 MISG      30.25S FOG
BECKLEY        PTCLDY    65  63  93 CALM      30.24S FOG
BLUEFIELD      CLEAR     64  59  83 SE3       30.26F
LOGAN CO APT*    N/A     68  68 100 CALM      30.18R FOG
$$

VAZ002-007-008-TNZ017-027-036-066-071-291100
...SOUTHWEST VIRGINIA/EAST TENNESSEE...

CITY           SKY/WX    TMP DP  RH WIND       PRES   REMARKS
WISE*          PTCLDY    70  61  73 S5        30.26R
JONESVILLE*      N/A     66  66 100 CALM      30.20S
ABINGDON*      CLEAR     68  64  88 NE3       30.23S
BRISTOL        PTCLDY    66  65  96 CALM      30.19S FOG
MORRISTOWN*    MOSUNNY   70  64  83 NE3       30.16R
SEVIERVILLE*   CLOUDY    64  64 100 CALM      30.15R VSB 1/2
KNOXVILLE      PTCLDY    70  67  90 CALM      30.13S
OAK RIDGE      CLEAR     71  68  90 CALM      30.16S
CROSSVILLE     CLOUDY    68  67  96 CALM      30.19S
NASHVILLE      CLEAR     73  68  84 CALM      30.12S
$$

...KEY TO REMARKS...
VSB - VISIBILITY IN MILES
WCI - WIND CHILL INDEX
HX  - HEAT INDEX

$$




USA.gov is the U.S. government's official web portal to all federal, state and local government web resources and services.